User: anonymous   Login
Location: Unspecified
(0.0000°N, 0.0000°E)
Time: 05:14:55
(UTC+00:00)
Language:

USA-167 - Orbit

View from above orbital plane
View from above orbital plane
View from above satellite
View from above satellite

Ground track
Ground track

The orbit data is extracted from the following two-line orbital elements,

1 27691U 03008A   18143.86490039 0.00000000  00000-0  00000-0 0    05
2 27691   5.2407  62.5586 0003924 281.7147  78.2471  1.00270000    04
Epoch (UTC): 23 May 2018 20:45:27
Eccentricity: 0.0003924
inclination: 5.2407°
perigee height: 35770 km
apogee height: 35803 km
right ascension of ascending node: 62.5586°
argument of perigee: 281.7147°
revolutions per day: 1.00270000
mean anomaly at epoch: 78.2471°
orbit number at epoch: 0

The dashed part of the orbit path shows where the satellite is in the earth's shadow,  

DLR